S56BOT-4 Weather Reports


Display with metric or nautical units.
time (UTC)temp
F
wind
direction
speed
MPH
gust
MPH
rain 1hr
in
rain 24hr
in
rain mn
in
humidity
%
barometer
mb
20260906044547 66 84 16.0 27.0 0.00 0.00 0.00 65 1024.1
20260906040114 67 133 19.0 29.0 0.00 0.00 0.00 64 1023.9
20260906031536 67 82 18.0 33.0 0.00 0.00 0.00 65 1023.5
20260906030034 67 73 19.0 32.0 0.00 0.00 0.00 65 1023.4
20260906021537 68 86 22.0 38.0 0.00 0.00 0.00 64 1022.9
20260906020039 68 125 16.0 31.0 0.00 0.00 0.00 63 1023.2
20260906013036 68 62 16.0 26.0 0.00 0.00 0.00 62 1023.2
20260906004536 69 76 16.0 31.0 0.00 0.00 0.00 61 1022.9
20260906003037 68 124 15.0 28.0 0.00 0.00 0.00 62 1023.3
20260905230039 69 104 14.0 25.0 0.00 0.00 0.00 61 1023.1
20260905221539 70 77 17.0 27.0 0.00 0.00 0.00 62 1023.1
20260905214546 70 100 15.0 25.0 0.00 0.00 0.00 62 1023.0
20260905194544 70 119 12.0 19.0 0.00 0.00 0.00 65 1022.5
20260905184553 71 88 12.0 19.0 0.00 0.00 0.00 64 1021.9
20260905181538 72 83 11.0 19.0 0.00 0.00 0.00 64 1021.5
20260905173056 73 104 13.0 20.0 0.00 0.00 0.00 63 1021.1
20260905154535 83 286 4.0 9.0 0.00 0.00 0.00 57 1020.4
20260905141537 85 192 5.0 13.0 0.00 0.00 0.00 57 1020.3
20260905133040 85 254 5.0 9.0 0.00 0.00 0.00 54 1020.3
20260905123045 86 216 8.0 14.0 0.00 0.00 0.00 48 1020.6
20260905114539 86 203 6.0 11.0 0.00 0.00 0.00 43 1020.5
20260905104540 83 240 2.0 7.0 0.00 0.00 0.00 44 1020.7
20260905090037 83 340 2.0 7.0 0.00 0.00 0.00 37 1020.8
20260905080037 78 84 4.0 8.0 0.00 0.00 0.00 42 1020.2
20260905064537 76 179 2.0 7.0 0.00 0.00 0.00 37 1019.6
20260905054602 74 184 2.0 5.0 0.00 0.00 0.00 37 1019.7